logo tempoitalia

Diretta Meteo Pula Aerodrome, Croazialunedì 26 luglio ore 02:30

Mappa
Sereno 25 °C Sereno 24 Ore: T.min 23 T.max 29
Ponente Est/Sud-Est Km/h 9.3 Punto di rugiada: 19 °C Umidità: 69% Visibilità: 10 Km
Il sole sorge alle: 05:38 Il sole tramonta alle: 20:42
26 Luglio 2021 02:30 tempo osservato: Sereno Sereno 25 69 1011 vento: Nord E/SE 9.3
26 Luglio 2021 02:00 tempo osservato: Sereno Sereno 25 69 1011 vento: Nord E/SE 13
26 Luglio 2021 01:30 tempo osservato: Sereno Sereno 24 69 1011 vento: Nord E 18.5
26 Luglio 2021 01:00 tempo osservato: Sereno Sereno 25 65 1011 vento: Nord E 16.7
26 Luglio 2021 00:30 tempo osservato: Sereno Sereno 25 65 1011 vento: Nord E 20.3
26 Luglio 2021 00:00 tempo osservato: Sereno Sereno 24 73 1011 vento: Nord E 18.5
25 Luglio 2021 23:30 tempo osservato: Sereno Sereno 24 78 1011 vento: Nord E 18.5
25 Luglio 2021 23:00 tempo osservato: Sereno Sereno 25 73 1010 vento: Nord E/SE 18.5
25 Luglio 2021 22:30 tempo osservato: Sereno Sereno 25 73 1011 vento: Nord E 18.5
25 Luglio 2021 22:00 tempo osservato: Sereno Sereno 24 78 1011 vento: Nord E 16.7
25 Luglio 2021 21:30 tempo osservato: Sereno Sereno 24 78 1011 vento: Nord E 16.7
25 Luglio 2021 21:00 tempo osservato: Sereno Sereno 24 78 1011 vento: Nord E 11.1
25 Luglio 2021 20:30 tempo osservato: Sereno Sereno 25 69 1011 vento: Nord E/SE 9.3
25 Luglio 2021 20:00 tempo osservato: Sereno Sereno 26 65 1011 vento: Nord N 9.3
25 Luglio 2021 19:30 tempo osservato: Sereno Sereno 26 65 1010 vento: Nord E/SE 11.1
25 Luglio 2021 19:00 tempo osservato: Sereno Sereno 26 65 1010 vento: Nord E/SE 14.8
25 Luglio 2021 18:30 tempo osservato: Pioggia Pioggia 26 65 1010 vento: Nord SE 16.7
25 Luglio 2021 18:00 tempo osservato: Poco Nuvoloso Poco Nuvoloso 26 65 1010 vento: Nord SE 18.5
25 Luglio 2021 17:30 tempo osservato: Poco Nuvoloso Poco Nuvoloso 26 69 1011 vento: Nord SE 20.3
25 Luglio 2021 17:00 tempo osservato: Sereno Sereno 27 65 1010 vento: Nord E/SE 16.7
25 Luglio 2021 16:30 tempo osservato: Sereno Sereno 27 65 1010 vento: Nord E/SE 16.7
25 Luglio 2021 16:00 tempo osservato: Sereno Sereno 28 58 1010 vento: Nord E/SE 13
25 Luglio 2021 15:30 tempo osservato: Sereno Sereno 28 58 1010 vento: Nord SE 14.8
25 Luglio 2021 15:00 tempo osservato: Sereno Sereno 27 61 1011 vento: Nord N 14.8
25 Luglio 2021 14:30 tempo osservato: Pioggia Pioggia 25 78 1011 vento: Nord S/SE 24
25 Luglio 2021 14:00 tempo osservato: Sereno Sereno 26 69 1012 vento: Nord N 13
25 Luglio 2021 13:30 tempo osservato: Sereno Sereno 27 61 1012 vento: Nord S/SE 14.8
25 Luglio 2021 13:00 tempo osservato: Sereno Sereno 29 51 1011 vento: Nord N 16.7
25 Luglio 2021 12:30 tempo osservato: Sereno Sereno 29 51 1011 vento: Nord SE 20.3
25 Luglio 2021 12:00 tempo osservato: Sereno Sereno 28 54 1011 vento: Nord E/SE 20.3
25 Luglio 2021 11:30 tempo osservato: Sereno Sereno 28 54 1011 vento: Nord E/SE 22.2
25 Luglio 2021 11:00 tempo osservato: Sereno Sereno 28 54 1012 vento: Nord SE 18.5
25 Luglio 2021 10:30 tempo osservato: Sereno Sereno 27 57 1012 vento: Nord SE 16.7
25 Luglio 2021 10:00 tempo osservato: Sereno Sereno 28 54 1011 vento: Nord E/SE 18.5
25 Luglio 2021 09:30 tempo osservato: Sereno Sereno 27 54 1011 vento: Nord E/SE 20.3
25 Luglio 2021 09:00 tempo osservato: Sereno Sereno 27 57 1011 vento: Nord E/SE 16.7
25 Luglio 2021 08:30 tempo osservato: Sereno Sereno 26 61 1011 vento: Nord E/SE 16.7
25 Luglio 2021 08:00 tempo osservato: Sereno Sereno 26 61 1011 vento: Nord E/SE 14.8
25 Luglio 2021 07:30 tempo osservato: Sereno Sereno 25 69 1011 vento: Nord E 14.8
25 Luglio 2021 07:00 tempo osservato: Sereno Sereno 24 73 1011 vento: Nord E 18.5
25 Luglio 2021 06:30 tempo osservato: Sereno Sereno 24 69 1011 vento: Nord E 14.8
25 Luglio 2021 06:00 tempo osservato: Sereno Sereno 24 69 1011 vento: Nord E 20.3
25 Luglio 2021 05:30 tempo osservato: Sereno Sereno 24 69 1010 vento: Nord E 22.2
25 Luglio 2021 05:00 tempo osservato: Sereno Sereno 23 73 1011 vento: Nord E 16.7
25 Luglio 2021 04:30 tempo osservato: Sereno Sereno 24 73 1011 vento: Nord E 18.5
25 Luglio 2021 04:00 tempo osservato: Sereno Sereno 24 69 1011 vento: Nord E 16.7